TimeAKST,TemperatureF,Dew PointF,Humidity,Sea Level PressureIn,VisibilityMPH,Wind Direction,Wind SpeedMPH,Gust SpeedMPH,PrecipitationIn,Events,Conditions,WindDirDegrees,DateUTC
12:53 AM,6.1,1.9,83,30.03,10.0,SSW,3.5,-,0.00,Snow,Light Snow,200,2011-11-08 09:53:00
1:53 AM,5.0,1.9,87,30.06,10.0,Variable,3.5,-,0.00,Snow,Light Snow,0,2011-11-08 10:53:00
3:53 AM,5.0,1.0,84,30.12,10.0,Variable,3.5,-,0.00,Snow,Light Snow,0,2011-11-08 12:53:00
4:53 AM,5.0,1.0,84,30.16,10.0,SSW,4.6,-,0.00,Snow,Light Snow,210,2011-11-08 13:53:00
5:53 AM,5.0,1.0,84,30.19,10.0,Variable,3.5,-,0.00,Snow,Light Snow,0,2011-11-08 14:53:00
6:53 AM,5.0,1.9,87,30.22,8.0,Variable,4.6,-,0.00,Snow,Light Snow,0,2011-11-08 15:53:00
7:53 AM,5.0,1.0,84,30.25,6.0,Variable,3.5,-,0.00,Snow,Light Snow,0,2011-11-08 16:53:00
8:53 AM,5.0,1.0,84,30.28,5.0,Variable,4.6,-,0.00,Snow,Light Snow,0,2011-11-08 17:53:00
9:53 AM,3.9,-0.0,84,30.31,7.0,Variable,5.8,-,0.00,Snow,Light Snow,0,2011-11-08 18:53:00
10:53 AM,1.0,-2.9,83,30.34,10.0,South,4.6,-,0.00,,Mostly Cloudy,180,2011-11-08 19:53:00
11:53 AM,1.0,-2.9,83,30.38,10.0,South,4.6,-,N/A,,Mostly Cloudy,190,2011-11-08 20:53:00
12:53 PM,-2.0,-5.1,87,30.38,10.0,North,6.9,-,N/A,,Mostly Cloudy,350,2011-11-08 21:53:00
1:53 PM,-2.0,-4.0,91,30.40,10.0,North,6.9,-,N/A,,Scattered Clouds,360,2011-11-08 22:53:00
2:53 PM,-4.0,-6.0,91,30.40,10.0,North,5.8,-,N/A,,Scattered Clouds,350,2011-11-08 23:53:00
3:53 PM,-6.0,-9.0,87,30.39,10.0,North,5.8,-,N/A,,Mostly Cloudy,360,2011-11-09 00:53:00
4:53 PM,-5.1,-9.9,80,30.38,10.0,NNW,9.2,-,N/A,,Mostly Cloudy,340,2011-11-09 01:53:00
5:53 PM,-6.0,-9.9,83,30.37,10.0,NNW,6.9,-,N/A,,Scattered Clouds,330,2011-11-09 02:53:00
6:53 PM,-11.9,-16.1,82,30.34,10.0,North,8.1,-,N/A,,Scattered Clouds,350,2011-11-09 03:53:00
7:53 PM,-14.1,-17.0,87,30.31,10.0,North,6.9,-,N/A,,Partly Cloudy,360,2011-11-09 04:53:00
8:53 PM,-11.9,-17.0,78,30.26,10.0,North,9.2,-,N/A,,Partly Cloudy,10,2011-11-09 05:53:00
9:53 PM,-7.1,-11.9,79,30.22,10.0,North,4.6,-,N/A,,Partly Cloudy,360,2011-11-09 06:53:00
10:53 PM,-9.9,-15.0,78,30.19,10.0,North,4.6,-,N/A,,Partly Cloudy,360,2011-11-09 07:53:00
11:53 PM,-13.0,-17.0,82,30.14,10.0,NNE,9.2,-,N/A,,Partly Cloudy,20,2011-11-09 08:53:00